^^
Your Local Weather - Clay, NY Station Historical Data
Daily Summary for February 27, 2017 Units:  English    Metric   Both
« Previous Day
Next Day »
Daily Weekly Monthly Yearly Custom
  High: Low: Average:
Temperature: 51.6 °F 31.2 °F 40.3 °F
Dew Point: 30.5 °F 17.9 °F 23.9 °F
Humidity: 86% 36% 53%
Wind Speed: 8.0mph 0.0mph 3.6mph
Wind Gust: 15.0mph - -
Wind- - WSW
Pressure: 30.29 in 30.09 in -
Precipitation: 0.01 in    
Historical Graphs
 
 
Tabular Data for February 27, 2017
Time Temperature Dew Point Pressure Wind Wind Speed Wind Gust Humidity Rainfall Rate (Hourly) solar
00:04 32.8 °F 18.8 °F 30.09 in SW 4.0 mph 6.0 mph 56% 0.00 in 0 W/m2
00:10 32.8 °F 18.4 °F 30.09 in SSW 4.0 mph 6.0 mph 55% 0.00 in 0 W/m2
00:16 33.0 °F 18.6 °F 30.09 in WSW 4.0 mph 6.0 mph 55% 0.00 in 0 W/m2
00:22 33.0 °F 18.6 °F 30.09 in SW 4.0 mph 5.0 mph 55% 0.00 in 0 W/m2
00:28 33.4 °F 18.5 °F 30.10 in SW 5.0 mph 9.0 mph 54% 0.00 in 0 W/m2
00:34 33.6 °F 18.3 °F 30.10 in South 6.0 mph 6.0 mph 53% 0.00 in 0 W/m2
00:40 33.6 °F 18.3 °F 30.10 in SW 5.0 mph 5.0 mph 53% 0.00 in 0 W/m2
00:46 33.8 °F 18.5 °F 30.10 in SW 5.0 mph 12.0 mph 53% 0.00 in 0 W/m2
00:52 34.1 °F 18.7 °F 30.10 in South 7.0 mph 7.0 mph 53% 0.00 in 0 W/m2
00:58 34.0 °F 18.6 °F 30.10 in SW 6.0 mph 10.0 mph 53% 0.00 in 0 W/m2
01:04 34.0 °F 18.6 °F 30.10 in SSW 6.0 mph 6.0 mph 53% 0.00 in 0 W/m2
01:10 34.1 °F 18.7 °F 30.10 in SSW 6.0 mph 6.0 mph 53% 0.00 in 0 W/m2
01:16 34.2 °F 18.4 °F 30.10 in SW 6.0 mph 6.0 mph 52% 0.00 in 0 W/m2
01:22 34.3 °F 18.5 °F 30.10 in SW 5.0 mph 5.0 mph 52% 0.00 in 0 W/m2
01:28 34.1 °F 18.7 °F 30.10 in SSW 5.0 mph 6.0 mph 53% 0.00 in 0 W/m2
01:34 34.3 °F 18.5 °F 30.10 in SW 5.0 mph 5.0 mph 52% 0.00 in 0 W/m2
01:40 34.2 °F 18.8 °F 30.10 in SW 4.0 mph 4.0 mph 53% 0.00 in 0 W/m2
01:46 34.3 °F 18.9 °F 30.10 in SW 5.0 mph 7.0 mph 53% 0.00 in 0 W/m2
01:52 34.4 °F 18.6 °F 30.10 in SSW 6.0 mph 7.0 mph 52% 0.00 in 0 W/m2
01:58 34.4 °F 18.6 °F 30.10 in SSW 5.0 mph 7.0 mph 52% 0.00 in 0 W/m2
02:04 34.6 °F 18.8 °F 30.10 in South 5.0 mph 12.0 mph 52% 0.00 in 0 W/m2
02:10 34.7 °F 18.9 °F 30.10 in SSW 5.0 mph 6.0 mph 52% 0.00 in 0 W/m2
02:16 34.6 °F 18.8 °F 30.10 in WSW 5.0 mph 6.0 mph 52% 0.00 in 0 W/m2
02:22 34.8 °F 18.5 °F 30.10 in WSW 5.0 mph 6.0 mph 51% 0.00 in 0 W/m2
02:28 34.8 °F 18.9 °F 30.10 in SW 5.0 mph 6.0 mph 52% 0.00 in 0 W/m2
02:34 34.9 °F 18.6 °F 30.10 in SSW 5.0 mph 5.0 mph 51% 0.00 in 0 W/m2
02:40 34.9 °F 18.6 °F 30.10 in South 5.0 mph 5.0 mph 51% 0.00 in 0 W/m2
02:46 34.8 °F 18.9 °F 30.10 in SSW 5.0 mph 9.0 mph 52% 0.00 in 0 W/m2
02:52 34.8 °F 18.5 °F 30.10 in SSW 5.0 mph 9.0 mph 51% 0.00 in 0 W/m2
02:58 34.9 °F 19.0 °F 30.10 in SSW 5.0 mph 9.0 mph 52% 0.00 in 0 W/m2
03:04 34.9 °F 18.6 °F 30.10 in SSW 5.0 mph 7.0 mph 51% 0.00 in 0 W/m2
03:10 34.9 °F 18.6 °F 30.10 in SW 4.0 mph 7.0 mph 51% 0.00 in 0 W/m2
03:16 35.2 °F 18.9 °F 30.11 in SW 4.0 mph 7.0 mph 51% 0.00 in 0 W/m2
03:22 35.1 °F 18.8 °F 30.10 in SSW 4.0 mph 4.0 mph 51% 0.00 in 0 W/m2
03:28 35.4 °F 19.0 °F 30.11 in SSW 5.0 mph 6.0 mph 51% 0.00 in 0 W/m2
03:34 35.4 °F 18.6 °F 30.11 in SSW 5.0 mph 8.0 mph 50% 0.00 in 0 W/m2
03:40 35.2 °F 18.9 °F 30.11 in SW 5.0 mph 5.0 mph 51% 0.00 in 0 W/m2
03:46 35.3 °F 19.0 °F 30.11 in South 5.0 mph 9.0 mph 51% 0.00 in 0 W/m2
03:52 35.3 °F 18.5 °F 30.12 in SW 5.0 mph 7.0 mph 50% 0.00 in 0 W/m2
03:58 35.3 °F 19.0 °F 30.12 in WSW 5.0 mph 7.0 mph 51% 0.00 in 0 W/m2
04:04 35.3 °F 19.0 °F 30.12 in SW 5.0 mph 7.0 mph 51% 0.00 in 0 W/m2
04:10 35.5 °F 18.7 °F 30.12 in SW 5.0 mph 10.0 mph 50% 0.00 in 0 W/m2
04:16 35.3 °F 19.0 °F 30.12 in West 4.0 mph 10.0 mph 51% 0.00 in 0 W/m2
04:22 35.5 °F 18.7 °F 30.12 in SSW 4.0 mph 5.0 mph 50% 0.00 in 0 W/m2
04:28 35.6 °F 18.8 °F 30.12 in SW 5.0 mph 8.0 mph 50% 0.00 in 0 W/m2
04:34 35.7 °F 18.4 °F 30.13 in SW 5.0 mph 6.0 mph 49% 0.00 in 0 W/m2
04:40 35.6 °F 18.8 °F 30.13 in SW 4.0 mph 5.0 mph 50% 0.00 in 0 W/m2
04:46 35.8 °F 18.5 °F 30.13 in SSE 5.0 mph 7.0 mph 49% 0.00 in 0 W/m2
04:52 35.8 °F 18.5 °F 30.13 in SW 5.0 mph 6.0 mph 49% 0.00 in 0 W/m2
04:58 35.7 °F 18.4 °F 30.14 in SW 5.0 mph 6.0 mph 49% 0.00 in 0 W/m2
05:04 35.8 °F 19.0 °F 30.14 in SSW 4.0 mph 5.0 mph 50% 0.00 in 0 W/m2
05:10 35.9 °F 18.6 °F 30.14 in SW 4.0 mph 7.0 mph 49% 0.00 in 0 W/m2
05:16 36.0 °F 18.7 °F 30.14 in South 5.0 mph 7.0 mph 49% 0.00 in 0 W/m2
05:22 36.0 °F 18.7 °F 30.14 in South 5.0 mph 8.0 mph 49% 0.00 in 0 W/m2
05:28 36.1 °F 18.3 °F 30.14 in South 5.0 mph 8.0 mph 48% 0.00 in 0 W/m2
05:34 36.2 °F 18.4 °F 30.14 in WSW 5.0 mph 5.0 mph 48% 0.00 in 0 W/m2
05:40 36.1 °F 18.3 °F 30.15 in SSW 6.0 mph 6.0 mph 48% 0.00 in 0 W/m2
05:46 36.1 °F 18.3 °F 30.14 in WNW 5.0 mph 10.0 mph 48% 0.00 in 0 W/m2
05:52 36.2 °F 18.4 °F 30.14 in South 6.0 mph 6.0 mph 48% 0.00 in 0 W/m2
05:58 36.3 °F 18.5 °F 30.14 in SE 5.0 mph 7.0 mph 48% 0.00 in 0 W/m2
06:04 36.2 °F 18.4 °F 30.14 in SW 5.0 mph 9.0 mph 48% 0.00 in 0 W/m2
06:10 36.2 °F 17.9 °F 30.15 in SW 5.0 mph 7.0 mph 47% 0.00 in 0 W/m2
06:16 36.1 °F 18.3 °F 30.15 in SW 4.0 mph 8.0 mph 48% 0.00 in 0 W/m2
06:22 36.0 °F 18.7 °F 30.15 in SSW 4.0 mph 6.0 mph 49% 0.00 in 0 W/m2
06:28 36.1 °F 18.3 °F 30.15 in SSW 5.0 mph 6.0 mph 48% 0.00 in 0 W/m2
06:34 36.1 °F 18.3 °F 30.15 in SSW 5.0 mph 6.0 mph 48% 0.00 in 0 W/m2
06:40 36.1 °F 18.3 °F 30.16 in South 4.0 mph 6.0 mph 48% 0.00 in 0 W/m2
06:46 36.4 °F 18.6 °F 30.16 in South 6.0 mph 12.0 mph 48% 0.00 in 5 W/m2
06:52 36.5 °F 18.2 °F 30.17 in SSW 6.0 mph 8.0 mph 47% 0.00 in 9 W/m2
06:58 36.6 °F 18.2 °F 30.17 in SSW 6.0 mph 8.0 mph 47% 0.00 in 14 W/m2
07:04 36.6 °F 18.2 °F 30.17 in SSW 5.0 mph 8.0 mph 47% 0.00 in 18 W/m2
07:10 37.0 °F 18.1 °F 30.18 in SW 6.0 mph 6.0 mph 46% 0.00 in 21 W/m2
07:16 37.1 °F 18.7 °F 30.18 in SSW 6.0 mph 9.0 mph 47% 0.00 in 30 W/m2
07:22 37.2 °F 18.3 °F 30.18 in SW 5.0 mph 8.0 mph 46% 0.00 in 32 W/m2
07:28 37.5 °F 18.1 °F 30.19 in SW 6.0 mph 8.0 mph 45% 0.00 in 32 W/m2
07:34 37.6 °F 18.7 °F 30.19 in WNW 6.0 mph 8.0 mph 46% 0.00 in 67 W/m2
07:40 37.9 °F 18.4 °F 30.20 in SW 6.0 mph 10.0 mph 45% 0.00 in 98 W/m2
07:46 38.1 °F 19.1 °F 30.20 in SW 6.0 mph 10.0 mph 46% 0.00 in 49 W/m2
07:52 38.1 °F 19.1 °F 30.20 in SSE 5.0 mph 6.0 mph 46% 0.00 in 56 W/m2
07:58 38.2 °F 19.2 °F 30.20 in WSW 5.0 mph 6.0 mph 46% 0.00 in 63 W/m2
08:04 38.2 °F 19.2 °F 30.21 in SW 5.0 mph 5.0 mph 46% 0.00 in 74 W/m2
08:10 38.5 °F 19.5 °F 30.20 in SSW 4.0 mph 4.0 mph 46% 0.00 in 91 W/m2
08:16 38.6 °F 19.6 °F 30.20 in WSW 4.0 mph 5.0 mph 46% 0.00 in 97 W/m2
08:22 38.9 °F 19.9 °F 30.21 in WSW 4.0 mph 7.0 mph 46% 0.00 in 113 W/m2
08:28 39.1 °F 20.0 °F 30.21 in SSE 4.0 mph 7.0 mph 46% 0.00 in 116 W/m2
08:34 39.3 °F 19.7 °F 30.21 in SW 4.0 mph 4.0 mph 45% 0.00 in 109 W/m2
08:40 39.3 °F 19.7 °F 30.21 in WSW 4.0 mph 5.0 mph 45% 0.00 in 128 W/m2
08:46 39.6 °F 20.0 °F 30.21 in WSW 4.0 mph 7.0 mph 45% 0.00 in 163 W/m2
08:52 39.9 °F 20.3 °F 30.21 in WSW 4.0 mph 6.0 mph 45% 0.00 in 141 W/m2
08:58 40.2 °F 20.0 °F 30.21 in WNW 4.0 mph 6.0 mph 44% 0.00 in 109 W/m2
09:04 40.5 °F 20.8 °F 30.21 in South 5.0 mph 7.0 mph 45% 0.00 in 285 W/m2
09:10 41.4 °F 20.5 °F 30.21 in SW 5.0 mph 5.0 mph 43% 0.00 in 399 W/m2
09:16 42.3 °F 21.9 °F 30.21 in SW 5.0 mph 8.0 mph 44% 0.00 in 406 W/m2
09:22 42.9 °F 21.4 °F 30.21 in SW 5.0 mph 5.0 mph 42% 0.00 in 420 W/m2
09:28 43.1 °F 22.1 °F 30.21 in West 5.0 mph 9.0 mph 43% 0.00 in 434 W/m2
09:34 43.8 °F 23.3 °F 30.22 in SW 4.0 mph 5.0 mph 44% 0.00 in 450 W/m2
09:40 44.1 °F 22.4 °F 30.22 in SW 4.0 mph 13.0 mph 42% 0.00 in 469 W/m2
09:46 44.0 °F 22.4 °F 30.22 in SW 6.0 mph 13.0 mph 42% 0.00 in 478 W/m2
09:52 44.2 °F 23.1 °F 30.23 in West 6.0 mph 9.0 mph 43% 0.00 in 494 W/m2
09:58 44.9 °F 23.7 °F 30.23 in West 5.0 mph 9.0 mph 43% 0.00 in 508 W/m2
10:04 45.2 °F 23.4 °F 30.23 in SW 4.0 mph 10.0 mph 42% 0.00 in 515 W/m2
10:10 44.8 °F 23.1 °F 30.23 in SW 6.0 mph 7.0 mph 42% 0.00 in 529 W/m2
10:16 45.3 °F 24.1 °F 30.23 in WSW 6.0 mph 7.0 mph 43% 0.00 in 540 W/m2
10:22 45.7 °F 25.5 °F 30.23 in West 5.0 mph 5.0 mph 45% 0.00 in 552 W/m2
10:28 46.3 °F 24.4 °F 30.23 in West 5.0 mph 5.0 mph 42% 0.00 in 566 W/m2
10:34 46.3 °F 24.4 °F 30.23 in WSW 5.0 mph 15.0 mph 42% 0.00 in 573 W/m2
10:40 45.9 °F 23.5 °F 30.23 in WSW 7.0 mph 7.0 mph 41% 0.00 in 649 W/m2
10:46 46.2 °F 24.3 °F 30.23 in WNW 6.0 mph 8.0 mph 42% 0.00 in 587 W/m2
10:52 46.5 °F 24.6 °F 30.23 in WSW 5.0 mph 5.0 mph 42% 0.00 in 599 W/m2
10:58 46.9 °F 26.1 °F 30.23 in WSW 4.0 mph 5.0 mph 44% 0.00 in 605 W/m2
11:04 46.5 °F 24.0 °F 30.23 in SSW 6.0 mph 8.0 mph 41% 0.00 in 613 W/m2
11:10 46.3 °F 25.0 °F 30.24 in West 8.0 mph 8.0 mph 43% 0.00 in 622 W/m2
11:16 46.7 °F 24.8 °F 30.24 in West 7.0 mph 8.0 mph 42% 0.00 in 633 W/m2
11:22 47.4 °F 26.0 °F 30.24 in SW 5.0 mph 8.0 mph 43% 0.00 in 656 W/m2
11:28 47.4 °F 25.4 °F 30.24 in SW 6.0 mph 8.0 mph 42% 0.00 in 664 W/m2
11:34 47.9 °F 25.9 °F 30.24 in West 6.0 mph 12.0 mph 42% 0.00 in 675 W/m2
11:40 47.5 °F 24.3 °F 30.24 in WSW 6.0 mph 7.0 mph 40% 0.00 in 679 W/m2
11:46 48.1 °F 25.5 °F 30.24 in SW 7.0 mph 7.0 mph 41% 0.00 in 659 W/m2
11:52 48.3 °F 26.2 °F 30.24 in SW 5.0 mph 8.0 mph 42% 0.00 in 650 W/m2
11:58 48.0 °F 26.0 °F 30.24 in West 6.0 mph 8.0 mph 42% 0.00 in 656 W/m2
12:04 48.8 °F 26.7 °F 30.24 in WSW 6.0 mph 6.0 mph 42% 0.00 in 659 W/m2
12:10 48.8 °F 25.5 °F 30.23 in WSW 4.0 mph 5.0 mph 40% 0.00 in 673 W/m2
12:16 48.4 °F 26.3 °F 30.22 in WSW 7.0 mph 15.0 mph 42% 0.00 in 659 W/m2
12:22 48.5 °F 26.4 °F 30.23 in SSW 6.0 mph 7.0 mph 42% 0.00 in 670 W/m2
12:28 48.7 °F 24.8 °F 30.22 in SW 6.0 mph 7.0 mph 39% 0.00 in 671 W/m2
12:34 48.1 °F 24.9 °F 30.22 in WNW 6.0 mph 7.0 mph 40% 0.00 in 689 W/m2
12:40 48.3 °F 25.7 °F 30.22 in SW 7.0 mph 8.0 mph 41% 0.00 in 682 W/m2
12:46 49.0 °F 26.3 °F 30.22 in WSW 6.0 mph 8.0 mph 41% 0.00 in 675 W/m2
12:52 49.5 °F 26.1 °F 30.22 in West 5.0 mph 10.0 mph 40% 0.00 in 664 W/m2
12:58 49.0 °F 25.7 °F 30.22 in SSW 6.0 mph 10.0 mph 40% 0.00 in 689 W/m2
13:04 49.4 °F 26.1 °F 30.22 in WSW 4.0 mph 6.0 mph 40% 0.00 in 162 W/m2
13:10 49.1 °F 26.4 °F 30.21 in SW 3.0 mph 3.0 mph 41% 0.00 in 244 W/m2
13:16 49.5 °F 24.9 °F 30.22 in SW 4.0 mph 9.0 mph 38% 0.00 in 279 W/m2
13:22 48.8 °F 25.5 °F 30.21 in SW 4.0 mph 5.0 mph 40% 0.00 in 218 W/m2
13:28 48.5 °F 24.6 °F 30.21 in West 5.0 mph 11.0 mph 39% 0.00 in 330 W/m2
13:34 49.3 °F 25.4 °F 30.21 in SSW 6.0 mph 7.0 mph 39% 0.00 in 738 W/m2
13:40 49.9 °F 24.6 °F 30.21 in SW 5.0 mph 5.0 mph 37% 0.00 in 719 W/m2
13:46 50.2 °F 24.9 °F 30.21 in WNW 5.0 mph 6.0 mph 37% 0.00 in 763 W/m2
13:52 49.7 °F 24.5 °F 30.21 in SSW 4.0 mph 7.0 mph 37% 0.00 in 156 W/m2
13:58 49.0 °F 24.5 °F 30.21 in West 5.0 mph 8.0 mph 38% 0.00 in 622 W/m2
14:04 50.0 °F 25.4 °F 30.20 in WNW 4.0 mph 5.0 mph 38% 0.00 in 204 W/m2
14:10 50.5 °F 26.4 °F 30.20 in West 4.0 mph 5.0 mph 39% 0.00 in 248 W/m2
14:16 50.0 °F 26.0 °F 30.20 in NW 4.0 mph 9.0 mph 39% 0.00 in 135 W/m2
14:22 50.5 °F 26.4 °F 30.20 in NW 5.0 mph 8.0 mph 39% 0.00 in 218 W/m2
14:28 51.5 °F 25.4 °F 30.19 in West 4.0 mph 8.0 mph 36% 0.00 in 613 W/m2
14:34 51.1 °F 25.0 °F 30.19 in West 5.0 mph 7.0 mph 36% 0.00 in 538 W/m2
14:40 51.3 °F 25.2 °F 30.19 in West 6.0 mph 6.0 mph 36% 0.00 in 146 W/m2
14:46 50.8 °F 27.3 °F 30.19 in West 6.0 mph 7.0 mph 40% 0.00 in 185 W/m2
14:52 51.6 °F 25.5 °F 30.19 in WNW 6.0 mph 11.0 mph 36% 0.00 in 605 W/m2
14:58 51.5 °F 26.1 °F 30.19 in SW 7.0 mph 12.0 mph 37% 0.00 in 596 W/m2
15:04 50.7 °F 26.0 °F 30.19 in WSW 7.0 mph 7.0 mph 38% 0.00 in 181 W/m2
15:10 50.0 °F 25.4 °F 30.19 in WSW 6.0 mph 6.0 mph 38% 0.00 in 193 W/m2
15:16 50.1 °F 25.5 °F 30.19 in WSW 5.0 mph 8.0 mph 38% 0.00 in 165 W/m2
15:22 50.1 °F 25.5 °F 30.19 in West 5.0 mph 5.0 mph 38% 0.00 in 153 W/m2
15:28 50.0 °F 24.7 °F 30.20 in West 5.0 mph 9.0 mph 37% 0.00 in 125 W/m2
15:34 49.9 °F 25.9 °F 30.20 in West 4.0 mph 5.0 mph 39% 0.00 in 98 W/m2
15:40 49.8 °F 25.2 °F 30.20 in WNW 4.0 mph 4.0 mph 38% 0.00 in 113 W/m2
15:46 49.8 °F 25.2 °F 30.20 in West 4.0 mph 5.0 mph 38% 0.00 in 135 W/m2
15:52 50.0 °F 26.0 °F 30.20 in West 3.0 mph 3.0 mph 39% 0.00 in 114 W/m2
15:58 49.9 °F 26.5 °F 30.20 in West 2.0 mph 3.0 mph 40% 0.00 in 77 W/m2
16:04 49.2 °F 28.7 °F 30.20 in NNW 2.0 mph 3.0 mph 45% 0.00 in 102 W/m2
16:10 48.5 °F 28.1 °F 30.21 in NW 2.0 mph 4.0 mph 45% 0.00 in 81 W/m2
16:16 48.1 °F 28.3 °F 30.21 in NW 2.0 mph 4.0 mph 46% 0.00 in 176 W/m2
16:22 48.3 °F 29.0 °F 30.21 in NW 2.0 mph 2.0 mph 47% 0.00 in 269 W/m2
16:28 48.5 °F 29.2 °F 30.22 in NW 1.0 mph 4.0 mph 47% 0.00 in 84 W/m2
16:34 48.1 °F 28.8 °F 30.22 in NNW 2.0 mph 4.0 mph 47% 0.00 in 109 W/m2
16:40 47.8 °F 29.0 °F 30.22 in NW 3.0 mph 3.0 mph 48% 0.00 in 79 W/m2
16:46 47.4 °F 28.7 °F 30.22 in NW 2.0 mph 3.0 mph 48% 0.00 in 58 W/m2
16:52 46.8 °F 28.6 °F 30.23 in WSW 2.0 mph 3.0 mph 49% 0.00 in 47 W/m2
16:58 46.4 °F 29.2 °F 30.23 in NNW 2.0 mph 3.0 mph 51% 0.00 in 47 W/m2
17:04 46.2 °F 29.5 °F 30.23 in NNW 2.0 mph 3.0 mph 52% 0.00 in 49 W/m2
17:10 46.1 °F 29.9 °F 30.24 in NNW 2.0 mph 2.0 mph 53% 0.00 in 44 W/m2
17:16 45.9 °F 29.7 °F 30.24 in NW 1.0 mph 4.0 mph 53% 0.00 in 44 W/m2
17:22 45.6 °F 29.9 °F 30.24 in NW 2.0 mph 5.0 mph 54% 0.00 in 39 W/m2
17:28 45.3 °F 29.6 °F 30.24 in NW 3.0 mph 5.0 mph 54% 0.00 in 28 W/m2
17:34 44.8 °F 30.0 °F 30.24 in North 3.0 mph 3.0 mph 56% 0.00 in 19 W/m2
17:40 44.2 °F 29.9 °F 30.24 in NNW 3.0 mph 4.0 mph 57% 0.00 in 12 W/m2
17:46 43.7 °F 30.3 °F 30.25 in NW 2.0 mph 4.0 mph 59% 0.00 in 9 W/m2
17:52 43.0 °F 29.6 °F 30.25 in NW 1.0 mph 4.0 mph 59% 0.00 in 5 W/m2
17:58 42.7 °F 29.4 °F 30.25 in NNW 2.0 mph 4.0 mph 59% 0.00 in 0 W/m2
18:04 42.2 °F 29.3 °F 30.25 in NNW 2.0 mph 2.0 mph 60% 0.00 in 0 W/m2
18:10 41.8 °F 29.3 °F 30.25 in NNW 1.0 mph 1.0 mph 61% 0.00 in 0 W/m2
18:16 41.3 °F 28.9 °F 30.25 in NNW 1.0 mph 2.0 mph 61% 0.00 in 0 W/m2
18:22 40.9 °F 28.5 °F 30.26 in Calm     61% 0.00 in 0 W/m2
18:28 40.6 °F 28.6 °F 30.26 in Calm     62% 0.00 in 0 W/m2
18:34 40.1 °F 28.5 °F 30.26 in Calm     63% 0.00 in 0 W/m2
18:40 39.5 °F 28.3 °F 30.26 in Calm     64% 0.00 in 0 W/m2
18:46 38.9 °F 28.5 °F 30.26 in Calm     66% 0.00 in 0 W/m2
18:52 38.6 °F 28.2 °F 30.27 in Calm     66% 0.00 in 0 W/m2
18:58 38.1 °F 28.1 °F 30.27 in Calm     67% 0.00 in 0 W/m2
19:04 37.6 °F 28.0 °F 30.27 in Calm     68% 0.00 in 0 W/m2
19:10 37.3 °F 27.7 °F 30.27 in Calm     68% 0.00 in 0 W/m2
19:16 37.0 °F 27.8 °F 30.27 in Calm     69% 0.00 in 0 W/m2
19:22 36.6 °F 27.7 °F 30.27 in Calm     70% 0.00 in 0 W/m2
19:28 36.3 °F 27.4 °F 30.27 in Calm     70% 0.00 in 0 W/m2
19:34 36.1 °F 27.9 °F 30.27 in Calm     72% 0.00 in 0 W/m2
19:40 35.7 °F 27.6 °F 30.27 in Calm     72% 0.00 in 0 W/m2
19:46 35.4 °F 27.9 °F 30.27 in Calm     74% 0.00 in 0 W/m2
19:52 35.4 °F 27.9 °F 30.27 in Calm   2.0 mph 74% 0.00 in 0 W/m2
19:58 35.7 °F 28.6 °F 30.27 in Calm   2.0 mph 75% 0.00 in 0 W/m2
20:04 35.7 °F 28.6 °F 30.27 in Calm     75% 0.00 in 0 W/m2
20:10 35.6 °F 28.5 °F 30.27 in Calm     75% 0.00 in 0 W/m2
20:16 35.5 °F 28.4 °F 30.27 in Calm     75% 0.00 in 0 W/m2
20:22 35.6 °F 28.5 °F 30.27 in Calm     75% 0.00 in 0 W/m2
20:28 35.6 °F 28.5 °F 30.27 in Calm     75% 0.00 in 0 W/m2
20:34 35.6 °F 28.5 °F 30.27 in Calm     75% 0.00 in 0 W/m2
20:40 35.6 °F 28.5 °F 30.27 in Calm     75% 0.00 in 0 W/m2
20:46 35.6 °F 28.5 °F 30.28 in Calm     75% 0.00 in 0 W/m2
20:52 35.6 °F 28.5 °F 30.28 in Calm     75% 0.00 in 0 W/m2
20:58 35.8 °F 29.0 °F 30.28 in Calm     76% 0.00 in 0 W/m2
21:04 35.8 °F 29.0 °F 30.28 in Calm     76% 0.00 in 0 W/m2
21:10 35.8 °F 29.0 °F 30.28 in Calm     76% 0.00 in 0 W/m2
21:16 35.9 °F 29.4 °F 30.28 in Calm     77% 0.00 in 0 W/m2
21:22 36.0 °F 29.8 °F 30.29 in Calm     78% 0.00 in 0 W/m2
21:28 36.1 °F 29.9 °F 30.29 in Calm     78% 0.00 in 0 W/m2
21:34 36.1 °F 30.2 °F 30.29 in Calm     79% 0.00 in 0 W/m2
21:40 36.2 °F 30.0 °F 30.29 in Calm     78% 0.00 in 0 W/m2
21:46 36.2 °F 30.3 °F 30.29 in Calm     79% 0.00 in 0 W/m2
21:52 36.3 °F 30.1 °F 30.29 in Calm     78% 0.00 in 0 W/m2
21:58 36.2 °F 29.7 °F 30.29 in Calm     77% 0.00 in 0 W/m2
22:04 36.3 °F 29.8 °F 30.28 in Calm     77% 0.00 in 0 W/m2
22:10 36.4 °F 30.2 °F 30.28 in Calm     78% 0.00 in 0 W/m2
22:16 36.4 °F 30.5 °F 30.28 in Calm     79% 0.00 in 0 W/m2
22:22 36.3 °F 30.1 °F 30.28 in Calm     78% 0.00 in 0 W/m2
22:28 36.1 °F 29.9 °F 30.28 in Calm     78% 0.00 in 0 W/m2
22:34 35.7 °F 29.5 °F 30.28 in Calm     78% 0.00 in 0 W/m2
22:40 35.4 °F 29.2 °F 30.28 in Calm     78% 0.00 in 0 W/m2
22:46 35.2 °F 29.0 °F 30.28 in Calm     78% 0.00 in 0 W/m2
22:52 34.9 °F 29.0 °F 30.28 in Calm     79% 0.00 in 0 W/m2
22:58 34.6 °F 29.1 °F 30.28 in Calm     80% 0.00 in 0 W/m2
23:04 34.3 °F 29.1 °F 30.28 in Calm     81% 0.00 in 0 W/m2
23:10 33.8 °F 28.9 °F 30.28 in Calm     82% 0.00 in 0 W/m2
23:16 33.5 °F 28.9 °F 30.28 in Calm     83% 0.00 in 0 W/m2
23:22 33.3 °F 29.0 °F 30.28 in Calm     84% 0.00 in 0 W/m2
23:28 33.0 °F 28.7 °F 30.28 in Calm     84% 0.00 in 0 W/m2
23:34 32.7 °F 28.7 °F 30.28 in Calm     85% 0.00 in 0 W/m2
23:40 32.3 °F 28.3 °F 30.28 in Calm     85% 0.00 in 0 W/m2
23:46 32.1 °F 28.4 °F 30.28 in Calm     86% 0.00 in 0 W/m2
23:52 31.7 °F 28.0 °F 30.28 in Calm     86% 0.00 in 0 W/m2
23:58 31.2 °F 27.5 °F 30.28 in Calm     86% 0.00 in 0 W/m2
Country Meadow, Clay, NY, USA
Compliments of Weather Underground - 2 mb